Content
SEND FEEDBACK

Daily
Averages
Monthly
Summary
United States of America

BOX ELDER, SOUTH DAKOTA


Home > North America > United States > South Dakota
Elevation: 3170 feet     Latitude: 44 09N     Longitude: 103 06W

WEATHER
 
SELECT A DAY
Number of Records: 207,026;   Date Range: 1/1/95 - 9/29/14
 
SHARE

PRINT THIS DATA

[ ← Previous Day ]
WEATHER ALMANAC - FEBRUARY 12, 2013
[ Next Day → ]
[ °C ]   °F
Weather ElementAverageHighLow
Temperature33.3 °F46 °F (1:55 pm)18.9 °F (3:55 am)
Dewpoint16 °F21.2 °F (11:55 am)7 °F (4:55 am)
Humidity50.2 %65 % (2:55 am)34 % (1:55 pm)
Barometer30.01 in30.06 in (7:55 am)29.91 in (10:55 pm)
Wind Speed10.3 mph23 mph (12:55 pm)
Wind Gust29.9 mph (1:55 pm)
Weather ElementAverage
Visibility10 mi
Wind DirectionW (268.7 °)

Weather ElementTotal
Precipitation---
Heating Degree Days32.6 (Base 65)
Averaged from 23 records on February 12, 2013
WEATHER CONDITIONS BREAKOUT
WIND DIRECTION BREAKOUT
WEATHER BY HOUR - FEBRUARY 12, 2013
[ °C ]   °F
Local TimeTemperatureDewpointHumidityBarometerVisibilityWind DirectionWind SpeedGust SpeedPrecipitationEventsConditions
1:55 AM20.7 °F9.7 °F63 %30.01 in10.0 miWSW (250°)4.6 mphMostly Cloudy
2:55 AM19.9 °F9.9 °F65 %30.00 in10.0 miWNW (290°)4.6 mphScattered Clouds
3:55 AM18.9 °F7.7 °F62 %30.01 in10.0 miWNW (300°)3.5 mphScattered Clouds
4:55 AM21.2 °F7.0 °F54 %30.02 in10.0 miWSW (250°)3.5 mphPartly Cloudy
5:55 AM19.4 °F7.9 °F61 %30.04 in10.0 miWest (280°)4.6 mphScattered Clouds
6:55 AM22.6 °F12.4 °F65 %30.04 in10.0 miWest (280°)6.9 mphMostly Cloudy
7:55 AM27.1 °F13.5 °F56 %30.06 in10.0 miCalmScattered Clouds
8:55 AM36.3 °F14.4 °F41 %30.06 in10.0 miCalmScattered Clouds
9:55 AM40.1 °F16.7 °F39 %30.04 in10.0 miNW (320°)5.8 mphClear
10:55 AM43.3 °F20.1 °F40 %30.04 in10.0 miNNW (340°)17.3 mph24.2 mphOvercast
11:55 AM42.6 °F21.2 °F43 %30.03 in10.0 miNNW (330°)18.4 mph26.5 mphOvercast
12:55 PM43.9 °F20.5 °F39 %30.00 in10.0 miNNW (340°)23.0 mph28.8 mphMostly Cloudy
1:55 PM46.0 °F19.2 °F34 %29.98 in10.0 miNNW (330°)20.7 mph29.9 mphScattered Clouds
2:55 PM44.4 °F18.1 °F35 %29.98 in10.0 miNorth (350°)17.3 mphClear
3:55 PM42.1 °F18.7 °F39 %29.99 in10.0 miNNW (340°)21.9 mphClear
4:55 PM39.4 °F17.6 °F41 %30.00 in10.0 miNNW (330°)23.0 mphPartly Cloudy
5:55 PM36.3 °F18.0 °F47 %30.02 in10.0 miWNW (290°)11.5 mphOvercast
6:55 PM35.4 °F18.3 °F50 %30.03 in10.0 miWest (260°)9.2 mphOvercast
7:55 PM31.8 °F17.2 °F55 %30.01 in10.0 miWest (260°)6.9 mphScattered Clouds
8:55 PM33.6 °F18.9 °F55 %29.98 in10.0 miWest (260°)6.9 mphOvercast
9:55 PM36.0 °F20.5 °F53 %29.95 in10.0 miWest (270°)9.2 mphOvercast
10:55 PM35.2 °F20.3 °F55 %29.91 in10.0 miWSW (240°)8.1 mphOvercast
11:55 PM30.7 °F19.6 °F63 %29.92 in10.0 miWest (270°)9.2 mphClear
Hourly data recorded from KRCA, located miles away from Box Elder, South Dakota







STORIES FROM OUR PARTNERS